Flag for Brazil Weather past 2 weeks in Maceió, Alagoas, Brazil

Now
70 °F

Passing clouds.


Feels Like: 70 °F
Forecast: N/A
Wind: 3 mph from South

Location: Maceio Aeroporto

Current Time: Aug 2, 2015 at 7:56:23 PM

Latest Report: Aug 2, 2015 at 7:00 PM


Visibility: N/A

Pressure: 30.04 "Hg

Humidity: 78%

Dew point: 63 °F

Location of MaceióLocation

Historic Weather in Maceió — Graph

°F

Maceió temperature yesterday

Maximum temperature yesterday: 79 °F (at 12:00 PM)
Minimum temperature yesterday: 66 °F (at 12:00 AM)
Average temperature yesterday: 72 °F

Past Weeks' High & Low Weather Summary

 TemperatureHumidityPressure
High86 °F (Jul 27, 5:00 AM)100% (Jul 18, 9:00 PM)30.12 "Hg (Jul 18, 9:00 PM)
Low61 °F (Aug 2, 7:00 AM)52% (Jul 27, 5:00 AM)29.98 "Hg (Jul 26, 3:00 PM)
Average72 °F86%30.06 "Hg
* Reported Jul 18 6:00 PM — Aug 2 6:00 PM, Maceió, Weather by CustomWeather, © 2015

Note: Actual official high and low records may vary slightly from our data, if they occured in-between our weather recording intervals... More about our weather records

Advertising

Maceió weather history for previous 24 hours

 ConditionsComfort  
Time TempWeatherWind HumidityBarometerVisibility
6:00 PM
Sun, Aug 2
72 °FPassing clouds.6 mph73%30.04 "HgN/A
5:00 PM75 °FPassing clouds.10 mph65%30.01 "HgN/A
4:00 PM77 °FPassing clouds.13 mph57%30.01 "HgN/A
3:00 PM77 °FSunny.14 mph61%30.01 "Hg10 mi
2:00 PM77 °FScattered clouds.9 mph65%30.01 "HgN/A
1:00 PM75 °FScattered clouds.10 mph69%30.04 "HgN/A
12:00 PM75 °FScattered clouds.12 mph74%30.07 "HgN/A
11:00 AM81 °FScattered clouds.9 mph58%30.09 "HgN/A
10:00 AM79 °FScattered clouds.15 mph58%30.09 "HgN/A
9:00 AM77 °FScattered clouds.14 mph65%30.09 "HgN/A
8:00 AM73 °FScattered clouds.2 mph78%30.07 "HgN/A
7:00 AM61 °FScattered clouds.3 mph100%30.07 "HgN/A
6:00 AM64 °FScattered clouds.2 mph94%30.04 "HgN/A
5:00 AM64 °FPassing clouds.3 mph94%30.04 "HgN/A
4:00 AM64 °FPassing clouds.3 mph100%30.04 "HgN/A
3:00 AM66 °FClear.2 mph94%30.04 "Hg10 mi
2:00 AM64 °FClear.No wind94%30.04 "Hg10 mi
1:00 AM66 °FPassing clouds.2 mph94%30.04 "HgN/A
12:00 AM68 °FPassing clouds.2 mph88%30.07 "HgN/A
11:00 PM
Sat, Aug 1
66 °FPassing clouds.2 mph83%30.07 "HgN/A
10:00 PM72 °FPassing clouds.3 mph83%30.07 "HgN/A
9:00 PM72 °FPassing clouds.2 mph78%30.07 "HgN/A
8:00 PM72 °FPassing clouds.5 mph78%30.04 "HgN/A
7:00 PM73 °FPassing clouds.3 mph74%30.04 "HgN/A
Weather by CustomWeather, © 2015

See weather overviewHow to use our weather pages